owner,sensor,date,latitude,longitude,vertical_datum,sea_water_practical_salinity,qcFlag 
TABS,ioos:station:wmo:42048:1,2017-05-09T01:00:00Z,27.9396,-96.8429,2.0,31.3646,11111222 
TABS,ioos:station:wmo:42048:1,2017-05-09T01:30:00Z,27.9396,-96.8429,2.0,31.3689,11111222 
TABS,ioos:station:wmo:42048:1,2017-05-09T02:00:00Z,27.9396,-96.8429,2.0,31.3969,11111222 
TABS,ioos:station:wmo:42048:1,2017-05-18T14:30:00Z,27.9396,-96.8429,2.0,31.3404,11111222 
TABS,ioos:station:wmo:42048:1,2017-05-18T15:00:00Z,27.9396,-96.8429,2.0,31.324,11111222 
TABS,ioos:station:wmo:42048:1,2017-05-18T15:30:00Z,27.9396,-96.8429,2.0,31.3437,11111222 
TABS,ioos:station:wmo:42048:1,2017-05-18T16:00:00Z,27.9396,-96.8429,2.0,31.4348,11111222 
TABS,ioos:station:wmo:42048:1,2017-05-18T16:30:00Z,27.9396,-96.8429,2.0,31.4945,11111222 
TABS,ioos:station:wmo:42048:1,2017-05-18T17:00:00Z,27.9396,-96.8429,2.0,31.5351,11111222 
TABS,ioos:station:wmo:42048:1,2017-05-18T17:30:00Z,27.9396,-96.8429,2.0,31.6147,11111222 
TABS,ioos:station:wmo:42048:1,2017-05-18T18:00:00Z,27.9396,-96.8429,2.0,31.7016,11111222 
TABS,ioos:station:wmo:42048:1,2017-05-19T21:30:00Z,27.9396,-96.8429,2.0,32.0717,11111222 
TABS,ioos:station:wmo:42048:1,2017-05-19T22:00:00Z,27.9396,-96.8429,2.0,32.1164,11111222 
TABS,ioos:station:wmo:42048:1,2017-05-19T22:30:00Z,27.9396,-96.8429,2.0,32.5164,11111222 
TABS,ioos:station:wmo:42048:1,2017-05-19T23:00:00Z,27.9396,-96.8429,2.0,32.6489,11111222 
TABS,ioos:station:wmo:42048:1,2017-05-19T23:30:00Z,27.9396,-96.8429,2.0,32.3597,11111222 
TABS,ioos:station:wmo:42048:1,2017-05-20T00:00:00Z,27.9396,-96.8429,2.0,32.2766,11111222 
TABS,ioos:station:wmo:42048:1,2017-05-20T00:30:00Z,27.9396,-96.8429,2.0,32.0079,11111222 
TABS,ioos:station:wmo:42048:1,2017-05-20T01:00:00Z,27.9396,-96.8429,2.0,32.0643,11111222 
TABS,ioos:station:wmo:42048:1,2017-05-20T01:30:00Z,27.9396,-96.8429,2.0,31.8931,11111222 
TABS,ioos:station:wmo:42048:1,2017-05-20T02:00:00Z,27.9396,-96.8429,2.0,31.7425,11111222 
TABS,ioos:station:wmo:42048:1,2017-05-20T02:30:00Z,27.9396,-96.8429,2.0,31.7255,11111222 
TABS,ioos:station:wmo:42048:1,2017-05-20T03:00:00Z,27.9396,-96.8429,2.0,31.7224,11111222 
TABS,ioos:station:wmo:42048:1,2017-05-20T03:30:00Z,27.9396,-96.8429,2.0,31.731,11111222 
TABS,ioos:station:wmo:42048:1,2017-05-20T04:00:00Z,27.9396,-96.8429,2.0,31.772,11111222 
TABS,ioos:station:wmo:42048:1,2017-05-20T04:30:00Z,27.9396,-96.8429,2.0,31.7353,11111222 
TABS,ioos:station:wmo:42048:1,2017-05-20T05:00:00Z,27.9396,-96.8429,2.0,31.7123,11111222 
TABS,ioos:station:wmo:42048:1,2017-05-20T05:30:00Z,27.9396,-96.8429,2.0,31.8108,11111222 
TABS,ioos:station:wmo:42048:1,2017-05-20T06:00:00Z,27.9396,-96.8429,2.0,31.7085,11111222 
TABS,ioos:station:wmo:42048:1,2017-05-20T08:30:00Z,27.9396,-96.8429,2.0,31.4739,11111222 
TABS,ioos:station:wmo:42048:1,2017-05-20T09:00:00Z,27.9396,-96.8429,2.0,31.5937,11111222 
TABS,ioos:station:wmo:42048:1,2017-05-20T09:30:00Z,27.9396,-96.8429,2.0,31.9071,11111222 
TABS,ioos:station:wmo:42048:1,2017-05-20T10:00:00Z,27.9396,-96.8429,2.0,32.0608,11111222 
TABS,ioos:station:wmo:42048:1,2017-05-20T10:30:00Z,27.9396,-96.8429,2.0,32.0901,11111222 
TABS,ioos:station:wmo:42048:1,2017-05-20T11:00:00Z,27.9396,-96.8429,2.0,32.0458,11111222 
TABS,ioos:station:wmo:42048:1,2017-05-20T11:30:00Z,27.9396,-96.8429,2.0,32.0288,11111222 
TABS,ioos:station:wmo:42048:1,2017-05-20T12:00:00Z,27.9396,-96.8429,2.0,31.9555,11111222 
TABS,ioos:station:wmo:42048:1,2017-05-20T12:30:00Z,27.9396,-96.8429,2.0,31.9377,11111222 
TABS,ioos:station:wmo:42048:1,2017-05-20T13:00:00Z,27.9396,-96.8429,2.0,31.9175,11111222 
TABS,ioos:station:wmo:42048:1,2017-05-20T13:30:00Z,27.9396,-96.8429,2.0,31.9058,11111222 
TABS,ioos:station:wmo:42048:1,2017-05-20T14:00:00Z,27.9396,-96.8429,2.0,31.9701,11111222 
TABS,ioos:station:wmo:42048:1,2017-05-20T14:30:00Z,27.9396,-96.8429,2.0,31.8241,11111222 
TABS,ioos:station:wmo:42048:1,2017-05-20T15:00:00Z,27.9396,-96.8429,2.0,31.7476,11111222 
TABS,ioos:station:wmo:42048:1,2017-05-20T15:30:00Z,27.9396,-96.8429,2.0,31.7024,11111222 
TABS,ioos:station:wmo:42048:1,2017-05-20T16:00:00Z,27.9396,-96.8429,2.0,31.6931,11111222 
TABS,ioos:station:wmo:42048:1,2017-05-20T16:30:00Z,27.9396,-96.8429,2.0,31.6634,11111222 
TABS,ioos:station:wmo:42048:1,2017-05-20T17:00:00Z,27.9396,-96.8429,2.0,31.662,11111222 
TABS,ioos:station:wmo:42048:1,2017-05-20T17:30:00Z,27.9396,-96.8429,2.0,31.7384,11111222 
TABS,ioos:station:wmo:42048:1,2017-05-20T18:00:00Z,27.9396,-96.8429,2.0,32.0717,11111222 
TABS,ioos:station:wmo:42048:1,2017-05-20T18:30:00Z,27.9396,-96.8429,2.0,32.1977,11111222 
TABS,ioos:station:wmo:42048:1,2017-05-20T19:00:00Z,27.9396,-96.8429,2.0,32.1674,11111222 
TABS,ioos:station:wmo:42048:1,2017-05-20T19:30:00Z,27.9396,-96.8429,2.0,32.0302,11111222 
TABS,ioos:station:wmo:42048:1,2017-05-20T20:00:00Z,27.9396,-96.8429,2.0,32.0352,11111222 
TABS,ioos:station:wmo:42048:1,2017-05-20T20:30:00Z,27.9396,-96.8429,2.0,31.972,11111222 
TABS,ioos:station:wmo:42048:1,2017-05-20T21:00:00Z,27.9396,-96.8429,2.0,31.8839,11111222 
TABS,ioos:station:wmo:42048:1,2017-05-20T21:30:00Z,27.9396,-96.8429,2.0,31.7521,11111222 
TABS,ioos:station:wmo:42048:1,2017-05-20T22:00:00Z,27.9396,-96.8429,2.0,31.6323,11111222 
TABS,ioos:station:wmo:42048:1,2017-05-20T22:30:00Z,27.9396,-96.8429,2.0,31.5672,11111222 
TABS,ioos:station:wmo:42048:1,2017-05-20T23:00:00Z,27.9396,-96.8429,2.0,31.5262,11111222 
TABS,ioos:station:wmo:42048:1,2017-05-20T23:30:00Z,27.9396,-96.8429,2.0,31.4999,11111222 
TABS,ioos:station:wmo:42048:1,2017-05-21T00:00:00Z,27.9396,-96.8429,2.0,31.5443,11111222 
TABS,ioos:station:wmo:42048:1,2017-05-21T00:30:00Z,27.9396,-96.8429,2.0,31.5125,11111222 
TABS,ioos:station:wmo:42048:1,2017-05-21T01:00:00Z,27.9396,-96.8429,2.0,31.5167,11111222 
TABS,ioos:station:wmo:42048:1,2017-05-21T01:30:00Z,27.9396,-96.8429,2.0,31.558,11111222 
TABS,ioos:station:wmo:42048:1,2017-05-21T02:00:00Z,27.9396,-96.8429,2.0,31.6587,11111222 
TABS,ioos:station:wmo:42048:1,2017-05-21T02:30:00Z,27.9396,-96.8429,2.0,31.5421,11111222 
TABS,ioos:station:wmo:42048:1,2017-05-21T03:00:00Z,27.9396,-96.8429,2.0,31.46,11111222 
TABS,ioos:station:wmo:42048:1,2017-05-21T03:30:00Z,27.9396,-96.8429,2.0,31.4362,11111222 
TABS,ioos:station:wmo:42048:1,2017-05-21T04:00:00Z,27.9396,-96.8429,2.0,31.4447,11111222 
TABS,ioos:station:wmo:42048:1,2017-05-21T04:30:00Z,27.9396,-96.8429,2.0,31.454,11111222 
TABS,ioos:station:wmo:42048:1,2017-05-21T05:00:00Z,27.9396,-96.8429,2.0,31.4935,11111222 
TABS,ioos:station:wmo:42048:1,2017-05-21T05:30:00Z,27.9396,-96.8429,2.0,31.5603,11111222 
TABS,ioos:station:wmo:42048:1,2017-05-21T06:00:00Z,27.9396,-96.8429,2.0,31.5141,11111222 
TABS,ioos:station:wmo:42048:1,2017-05-21T06:30:00Z,27.9396,-96.8429,2.0,30.9927,11111222 
TABS,ioos:station:wmo:42048:1,2017-05-21T07:00:00Z,27.9396,-96.8429,2.0,30.9048,11111222 
TABS,ioos:station:wmo:42048:1,2017-05-21T07:30:00Z,27.9396,-96.8429,2.0,30.8538,11111222 
TABS,ioos:station:wmo:42048:1,2017-05-21T08:00:00Z,27.9396,-96.8429,2.0,31.0325,11111222 
TABS,ioos:station:wmo:42048:1,2017-05-21T08:30:00Z,27.9396,-96.8429,2.0,31.4632,11111222 
TABS,ioos:station:wmo:42048:1,2017-05-21T09:00:00Z,27.9396,-96.8429,2.0,31.4383,11111222 
TABS,ioos:station:wmo:42048:1,2017-05-21T09:30:00Z,27.9396,-96.8429,2.0,31.2626,11111222 
TABS,ioos:station:wmo:42048:1,2017-05-21T10:00:00Z,27.9396,-96.8429,2.0,31.4593,11111222 
TABS,ioos:station:wmo:42048:1,2017-05-21T10:30:00Z,27.9396,-96.8429,2.0,32.0452,11111222 
TABS,ioos:station:wmo:42048:1,2017-05-21T11:00:00Z,27.9396,-96.8429,2.0,32.1588,11111222 
TABS,ioos:station:wmo:42048:1,2017-05-21T11:30:00Z,27.9396,-96.8429,2.0,32.2872,11111222 
TABS,ioos:station:wmo:42048:1,2017-05-21T12:00:00Z,27.9396,-96.8429,2.0,32.3621,11111222 
TABS,ioos:station:wmo:42048:1,2017-05-21T12:30:00Z,27.9396,-96.8429,2.0,32.1115,11111222 
TABS,ioos:station:wmo:42048:1,2017-05-21T13:00:00Z,27.9396,-96.8429,2.0,31.805,11111222 
TABS,ioos:station:wmo:42048:1,2017-05-21T13:30:00Z,27.9396,-96.8429,2.0,31.6338,11111222 
TABS,ioos:station:wmo:42048:1,2017-05-21T14:00:00Z,27.9396,-96.8429,2.0,31.5928,11111222 
TABS,ioos:station:wmo:42048:1,2017-05-21T14:30:00Z,27.9396,-96.8429,2.0,31.5143,11111222 
TABS,ioos:station:wmo:42048:1,2017-05-21T15:00:00Z,27.9396,-96.8429,2.0,31.4813,11111222 
TABS,ioos:station:wmo:42048:1,2017-05-21T15:30:00Z,27.9396,-96.8429,2.0,31.4663,11111222 
TABS,ioos:station:wmo:42048:1,2017-05-21T16:00:00Z,27.9396,-96.8429,2.0,31.4695,11111222 
TABS,ioos:station:wmo:42048:1,2017-05-21T16:30:00Z,27.9396,-96.8429,2.0,31.4684,11111222 
TABS,ioos:station:wmo:42048:1,2017-05-21T17:00:00Z,27.9396,-96.8429,2.0,31.4765,11111222 
TABS,ioos:station:wmo:42048:1,2017-05-21T17:30:00Z,27.9396,-96.8429,2.0,31.4658,11111222 
TABS,ioos:station:wmo:42048:1,2017-05-21T18:00:00Z,27.9396,-96.8429,2.0,31.4304,11111222 
TABS,ioos:station:wmo:42048:1,2017-05-21T18:30:00Z,27.9396,-96.8429,2.0,31.4268,11111222 
TABS,ioos:station:wmo:42048:1,2017-05-21T19:00:00Z,27.9396,-96.8429,2.0,31.3789,11111222 
TABS,ioos:station:wmo:42048:1,2017-05-21T19:30:00Z,27.9396,-96.8429,2.0,31.348,11111222 
TABS,ioos:station:wmo:42048:1,2017-05-21T20:00:00Z,27.9396,-96.8429,2.0,31.363,11111222 
TABS,ioos:station:wmo:42048:1,2017-05-21T20:30:00Z,27.9396,-96.8429,2.0,31.3614,11111222 
TABS,ioos:station:wmo:42048:1,2017-05-21T21:00:00Z,27.9396,-96.8429,2.0,31.3751,11111222 
TABS,ioos:station:wmo:42048:1,2017-05-21T21:30:00Z,27.9396,-96.8429,2.0,31.2668,11111222 
TABS,ioos:station:wmo:42048:1,2017-05-21T22:00:00Z,27.9396,-96.8429,2.0,31.3411,11111222 
TABS,ioos:station:wmo:42048:1,2017-05-21T22:30:00Z,27.9396,-96.8429,2.0,31.3472,11111222 
TABS,ioos:station:wmo:42048:1,2017-05-21T23:00:00Z,27.9396,-96.8429,2.0,31.319,11111222 
TABS,ioos:station:wmo:42048:1,2017-05-21T23:30:00Z,27.9396,-96.8429,2.0,31.2882,11111222 
TABS,ioos:station:wmo:42048:1,2017-05-22T00:00:00Z,27.9396,-96.8429,2.0,31.2966,11111222 
TABS,ioos:station:wmo:42048:1,2017-05-22T00:30:00Z,27.9396,-96.8429,2.0,31.3443,11111222 
TABS,ioos:station:wmo:42048:1,2017-05-22T01:00:00Z,27.9396,-96.8429,2.0,31.2835,11111222 
TABS,ioos:station:wmo:42048:1,2017-05-22T01:30:00Z,27.9396,-96.8429,2.0,31.2157,11111222 
TABS,ioos:station:wmo:42048:1,2017-05-22T02:00:00Z,27.9396,-96.8429,2.0,31.2258,11111222 
TABS,ioos:station:wmo:42048:1,2017-05-22T02:30:00Z,27.9396,-96.8429,2.0,31.2185,11111222 
TABS,ioos:station:wmo:42048:1,2017-05-22T03:00:00Z,27.9396,-96.8429,2.0,31.241,11111222 
TABS,ioos:station:wmo:42048:1,2017-05-22T03:30:00Z,27.9396,-96.8429,2.0,31.2871,11111222 
TABS,ioos:station:wmo:42048:1,2017-05-22T04:00:00Z,27.9396,-96.8429,2.0,31.4014,11111222 
TABS,ioos:station:wmo:42048:1,2017-05-22T04:30:00Z,27.9396,-96.8429,2.0,31.5963,11111222 
TABS,ioos:station:wmo:42048:1,2017-05-22T05:00:00Z,27.9396,-96.8429,2.0,31.7899,11111222 
TABS,ioos:station:wmo:42048:1,2017-05-22T05:30:00Z,27.9396,-96.8429,2.0,32.1173,11111222 
TABS,ioos:station:wmo:42048:1,2017-05-22T06:00:00Z,27.9396,-96.8429,2.0,32.1694,11111222 
TABS,ioos:station:wmo:42048:1,2017-05-22T06:30:00Z,27.9396,-96.8429,2.0,32.2086,11111222 
TABS,ioos:station:wmo:42048:1,2017-05-22T07:00:00Z,27.9396,-96.8429,2.0,32.2148,11111222 
TABS,ioos:station:wmo:42048:1,2017-05-22T07:30:00Z,27.9396,-96.8429,2.0,32.2276,11111222 
TABS,ioos:station:wmo:42048:1,2017-05-22T08:00:00Z,27.9396,-96.8429,2.0,32.1529,11111222 
TABS,ioos:station:wmo:42048:1,2017-05-22T08:30:00Z,27.9396,-96.8429,2.0,32.1868,11111222 
TABS,ioos:station:wmo:42048:1,2017-05-22T09:00:00Z,27.9396,-96.8429,2.0,32.2086,11111222 
TABS,ioos:station:wmo:42048:1,2017-05-22T09:30:00Z,27.9396,-96.8429,2.0,32.1623,11111222 
TABS,ioos:station:wmo:42048:1,2017-05-22T10:00:00Z,27.9396,-96.8429,2.0,32.2105,11111222 
TABS,ioos:station:wmo:42048:1,2017-05-22T10:30:00Z,27.9396,-96.8429,2.0,32.3042,11111222 
TABS,ioos:station:wmo:42048:1,2017-05-22T11:00:00Z,27.9396,-96.8429,2.0,32.3844,11111222 
TABS,ioos:station:wmo:42048:1,2017-05-22T11:30:00Z,27.9396,-96.8429,2.0,32.0346,11111222 
TABS,ioos:station:wmo:42048:1,2017-05-22T12:00:00Z,27.9396,-96.8429,2.0,32.2035,11111222 
TABS,ioos:station:wmo:42048:1,2017-05-22T12:30:00Z,27.9396,-96.8429,2.0,32.0619,11111222 
TABS,ioos:station:wmo:42048:1,2017-05-22T13:00:00Z,27.9396,-96.8429,2.0,31.8419,11111222 
TABS,ioos:station:wmo:42048:1,2017-05-22T13:30:00Z,27.9396,-96.8429,2.0,31.6199,11111222 
TABS,ioos:station:wmo:42048:1,2017-05-22T14:00:00Z,27.9396,-96.8429,2.0,31.4048,11111222 
TABS,ioos:station:wmo:42048:1,2017-05-22T14:30:00Z,27.9396,-96.8429,2.0,31.3666,11111222 
TABS,ioos:station:wmo:42048:1,2017-05-22T15:00:00Z,27.9396,-96.8429,2.0,31.1981,11111222 
TABS,ioos:station:wmo:42048:1,2017-05-22T15:30:00Z,27.9396,-96.8429,2.0,30.5102,11111222 
TABS,ioos:station:wmo:42048:1,2017-05-22T16:00:00Z,27.9396,-96.8429,2.0,30.7788,11111222 
TABS,ioos:station:wmo:42048:1,2017-05-22T16:30:00Z,27.9396,-96.8429,2.0,30.8212,11111222 
TABS,ioos:station:wmo:42048:1,2017-05-22T17:00:00Z,27.9396,-96.8429,2.0,30.7958,11111222 
TABS,ioos:station:wmo:42048:1,2017-05-22T17:30:00Z,27.9396,-96.8429,2.0,30.833,11111222 
TABS,ioos:station:wmo:42048:1,2017-05-22T18:00:00Z,27.9396,-96.8429,2.0,30.8418,11111222 
TABS,ioos:station:wmo:42048:1,2017-05-22T18:30:00Z,27.9396,-96.8429,2.0,30.8516,11111222 
TABS,ioos:station:wmo:42048:1,2017-05-22T19:00:00Z,27.9396,-96.8429,2.0,30.9289,11111222 
TABS,ioos:station:wmo:42048:1,2017-05-22T19:30:00Z,27.9396,-96.8429,2.0,30.9703,11111222 
TABS,ioos:station:wmo:42048:1,2017-05-22T20:00:00Z,27.9396,-96.8429,2.0,31.008,11111222 
TABS,ioos:station:wmo:42048:1,2017-05-22T20:30:00Z,27.9396,-96.8429,2.0,31.0404,11111222 
TABS,ioos:station:wmo:42048:1,2017-05-22T21:00:00Z,27.9396,-96.8429,2.0,31.0285,11111222 
TABS,ioos:station:wmo:42048:1,2017-05-22T21:30:00Z,27.9396,-96.8429,2.0,30.9395,11111222 
TABS,ioos:station:wmo:42048:1,2017-05-22T22:00:00Z,27.9396,-96.8429,2.0,30.9407,11111222 
TABS,ioos:station:wmo:42048:1,2017-05-22T22:30:00Z,27.9396,-96.8429,2.0,30.9337,11111222 
TABS,ioos:station:wmo:42048:1,2017-05-22T23:00:00Z,27.9396,-96.8429,2.0,30.8485,11111222 
TABS,ioos:station:wmo:42048:1,2017-05-22T23:30:00Z,27.9396,-96.8429,2.0,30.7721,11111222 
TABS,ioos:station:wmo:42048:1,2017-05-23T00:00:00Z,27.9396,-96.8429,2.0,30.7493,11111222 
TABS,ioos:station:wmo:42048:1,2017-05-23T00:30:00Z,27.9396,-96.8429,2.0,30.7338,11111222 
TABS,ioos:station:wmo:42048:1,2017-05-23T01:00:00Z,27.9396,-96.8429,2.0,30.7127,11111222 
TABS,ioos:station:wmo:42048:1,2017-05-23T01:30:00Z,27.9396,-96.8429,2.0,30.588,11111222 
TABS,ioos:station:wmo:42048:1,2017-05-23T02:00:00Z,27.9396,-96.8429,2.0,30.5286,11111222 
TABS,ioos:station:wmo:42048:1,2017-05-23T02:30:00Z,27.9396,-96.8429,2.0,30.5256,11111222 
TABS,ioos:station:wmo:42048:1,2017-05-23T03:00:00Z,27.9396,-96.8429,2.0,30.6546,11111222 
TABS,ioos:station:wmo:42048:1,2017-05-23T03:30:00Z,27.9396,-96.8429,2.0,30.6283,11111222 
TABS,ioos:station:wmo:42048:1,2017-05-23T04:00:00Z,27.9396,-96.8429,2.0,30.6259,11111222 
TABS,ioos:station:wmo:42048:1,2017-05-23T04:30:00Z,27.9396,-96.8429,2.0,30.6224,11111222 
TABS,ioos:station:wmo:42048:1,2017-05-23T05:00:00Z,27.9396,-96.8429,2.0,30.6045,11111222 
TABS,ioos:station:wmo:42048:1,2017-05-23T05:30:00Z,27.9396,-96.8429,2.0,30.5761,11111222 
TABS,ioos:station:wmo:42048:1,2017-05-23T06:00:00Z,27.9396,-96.8429,2.0,30.5661,11111222 
TABS,ioos:station:wmo:42048:1,2017-05-23T06:30:00Z,27.9396,-96.8429,2.0,30.5672,11111222 
TABS,ioos:station:wmo:42048:1,2017-05-23T07:00:00Z,27.9396,-96.8429,2.0,30.5387,11111222 
TABS,ioos:station:wmo:42048:1,2017-05-23T07:30:00Z,27.9396,-96.8429,2.0,30.5717,11111222 
TABS,ioos:station:wmo:42048:1,2017-05-23T08:00:00Z,27.9396,-96.8429,2.0,30.6418,11111222 
TABS,ioos:station:wmo:42048:1,2017-05-23T08:30:00Z,27.9396,-96.8429,2.0,30.7146,11111222 
TABS,ioos:station:wmo:42048:1,2017-05-23T09:00:00Z,27.9396,-96.8429,2.0,30.744,11111222 
TABS,ioos:station:wmo:42048:1,2017-05-23T09:30:00Z,27.9396,-96.8429,2.0,30.754,11111222 
TABS,ioos:station:wmo:42048:1,2017-05-23T10:00:00Z,27.9396,-96.8429,2.0,30.7592,11111222 
TABS,ioos:station:wmo:42048:1,2017-05-23T10:30:00Z,27.9396,-96.8429,2.0,30.7617,11111222 
TABS,ioos:station:wmo:42048:1,2017-05-23T11:00:00Z,27.9396,-96.8429,2.0,30.7701,11111222 
TABS,ioos:station:wmo:42048:1,2017-05-23T11:30:00Z,27.9396,-96.8429,2.0,30.777,11111222 
TABS,ioos:station:wmo:42048:1,2017-05-23T12:00:00Z,27.9396,-96.8429,2.0,30.7857,11111222 
TABS,ioos:station:wmo:42048:1,2017-05-23T12:30:00Z,27.9396,-96.8429,2.0,30.7877,11111222 
TABS,ioos:station:wmo:42048:1,2017-05-23T13:00:00Z,27.9396,-96.8429,2.0,30.7626,11111222 
TABS,ioos:station:wmo:42048:1,2017-05-23T13:30:00Z,27.9396,-96.8429,2.0,30.753,11111222 
TABS,ioos:station:wmo:42048:1,2017-05-23T14:00:00Z,27.9396,-96.8429,2.0,30.7412,11111222 
TABS,ioos:station:wmo:42048:1,2017-05-23T14:30:00Z,27.9396,-96.8429,2.0,30.7026,11111222 
TABS,ioos:station:wmo:42048:1,2017-05-23T15:00:00Z,27.9396,-96.8429,2.0,30.7246,11111222 
TABS,ioos:station:wmo:42048:1,2017-05-23T15:30:00Z,27.9396,-96.8429,2.0,30.7055,11111222 
TABS,ioos:station:wmo:42048:1,2017-05-23T16:00:00Z,27.9396,-96.8429,2.0,30.6155,11111222 
TABS,ioos:station:wmo:42048:1,2017-05-23T16:30:00Z,27.9396,-96.8429,2.0,30.6228,11111222 
TABS,ioos:station:wmo:42048:1,2017-05-23T17:00:00Z,27.9396,-96.8429,2.0,30.6318,11111222 
TABS,ioos:station:wmo:42048:1,2017-05-23T17:30:00Z,27.9396,-96.8429,2.0,30.5923,11111222 
TABS,ioos:station:wmo:42048:1,2017-05-23T18:00:00Z,27.9396,-96.8429,2.0,30.5711,11111222 
TABS,ioos:station:wmo:42048:1,2017-05-23T18:30:00Z,27.9396,-96.8429,2.0,30.5341,11111222 
TABS,ioos:station:wmo:42048:1,2017-05-23T19:00:00Z,27.9396,-96.8429,2.0,30.5104,11111222 
TABS,ioos:station:wmo:42048:1,2017-05-23T19:30:00Z,27.9396,-96.8429,2.0,30.5085,11111222 
TABS,ioos:station:wmo:42048:1,2017-05-23T20:00:00Z,27.9396,-96.8429,2.0,30.5494,11111222 
TABS,ioos:station:wmo:42048:1,2017-05-23T20:30:00Z,27.9396,-96.8429,2.0,30.5252,11111222 
TABS,ioos:station:wmo:42048:1,2017-05-23T21:00:00Z,27.9396,-96.8429,2.0,30.5814,11111222 
TABS,ioos:station:wmo:42048:1,2017-05-23T21:30:00Z,27.9396,-96.8429,2.0,30.6651,11111222 
TABS,ioos:station:wmo:42048:1,2017-05-23T22:00:00Z,27.9396,-96.8429,2.0,30.6481,11111222 
TABS,ioos:station:wmo:42048:1,2017-05-23T22:30:00Z,27.9396,-96.8429,2.0,30.7148,11111222 
TABS,ioos:station:wmo:42048:1,2017-05-23T23:00:00Z,27.9396,-96.8429,2.0,30.7198,11111222 
TABS,ioos:station:wmo:42048:1,2017-05-23T23:30:00Z,27.9396,-96.8429,2.0,30.6444,11111222 
TABS,ioos:station:wmo:42048:1,2017-05-24T00:00:00Z,27.9396,-96.8429,2.0,30.6057,11111222 
TABS,ioos:station:wmo:42048:1,2017-05-24T00:30:00Z,27.9396,-96.8429,2.0,30.6668,11111222 
TABS,ioos:station:wmo:42048:1,2017-05-24T01:00:00Z,27.9396,-96.8429,2.0,30.6651,11111222 
TABS,ioos:station:wmo:42048:1,2017-05-24T01:30:00Z,27.9396,-96.8429,2.0,30.6608,11111222 
TABS,ioos:station:wmo:42048:1,2017-05-24T02:00:00Z,27.9396,-96.8429,2.0,30.5295,11111222 
TABS,ioos:station:wmo:42048:1,2017-05-24T02:30:00Z,27.9396,-96.8429,2.0,30.5599,11111222 
TABS,ioos:station:wmo:42048:1,2017-05-24T03:00:00Z,27.9396,-96.8429,2.0,30.6435,11111222 
TABS,ioos:station:wmo:42048:1,2017-05-24T03:30:00Z,27.9396,-96.8429,2.0,30.7421,11111222 
TABS,ioos:station:wmo:42048:1,2017-05-24T04:00:00Z,27.9396,-96.8429,2.0,30.8292,11111222 
TABS,ioos:station:wmo:42048:1,2017-05-24T04:30:00Z,27.9396,-96.8429,2.0,30.8505,11111222 
TABS,ioos:station:wmo:42048:1,2017-05-24T05:00:00Z,27.9396,-96.8429,2.0,30.8771,11111222 
TABS,ioos:station:wmo:42048:1,2017-05-24T05:30:00Z,27.9396,-96.8429,2.0,30.9273,11111222 
TABS,ioos:station:wmo:42048:1,2017-05-24T06:00:00Z,27.9396,-96.8429,2.0,30.9124,11111222 
TABS,ioos:station:wmo:42048:1,2017-05-24T06:30:00Z,27.9396,-96.8429,2.0,30.9324,11111222 
TABS,ioos:station:wmo:42048:1,2017-05-24T07:00:00Z,27.9396,-96.8429,2.0,30.9406,11111222 
TABS,ioos:station:wmo:42048:1,2017-05-24T07:30:00Z,27.9396,-96.8429,2.0,30.9437,11111222 
TABS,ioos:station:wmo:42048:1,2017-05-24T08:00:00Z,27.9396,-96.8429,2.0,30.9272,11111222 
TABS,ioos:station:wmo:42048:1,2017-05-24T08:30:00Z,27.9396,-96.8429,2.0,30.9201,11111222 
TABS,ioos:station:wmo:42048:1,2017-05-24T09:00:00Z,27.9396,-96.8429,2.0,30.9246,11111222 
TABS,ioos:station:wmo:42048:1,2017-05-24T09:30:00Z,27.9396,-96.8429,2.0,30.9263,11111222 
TABS,ioos:station:wmo:42048:1,2017-05-24T10:00:00Z,27.9396,-96.8429,2.0,30.8962,11111222 
TABS,ioos:station:wmo:42048:1,2017-05-24T10:30:00Z,27.9396,-96.8429,2.0,30.8581,11111222 
TABS,ioos:station:wmo:42048:1,2017-05-24T11:00:00Z,27.9396,-96.8429,2.0,30.8237,11111222 
TABS,ioos:station:wmo:42048:1,2017-05-24T11:30:00Z,27.9396,-96.8429,2.0,30.8063,11111222 
TABS,ioos:station:wmo:42048:1,2017-05-24T12:00:00Z,27.9396,-96.8429,2.0,30.7959,11111222 
TABS,ioos:station:wmo:42048:1,2017-05-24T12:30:00Z,27.9396,-96.8429,2.0,30.7852,11111222 
TABS,ioos:station:wmo:42048:1,2017-05-24T13:00:00Z,27.9396,-96.8429,2.0,30.7655,11111222 
TABS,ioos:station:wmo:42048:1,2017-05-24T13:30:00Z,27.9396,-96.8429,2.0,30.7371,11111222 
TABS,ioos:station:wmo:42048:1,2017-05-24T14:00:00Z,27.9396,-96.8429,2.0,30.715,11111222 
TABS,ioos:station:wmo:42048:1,2017-05-24T14:30:00Z,27.9396,-96.8429,2.0,30.6965,11111222 
TABS,ioos:station:wmo:42048:1,2017-05-24T15:00:00Z,27.9396,-96.8429,2.0,30.6775,11111222 
TABS,ioos:station:wmo:42048:1,2017-05-24T15:30:00Z,27.9396,-96.8429,2.0,30.6641,11111222 
TABS,ioos:station:wmo:42048:1,2017-05-24T16:00:00Z,27.9396,-96.8429,2.0,30.6412,11111222 
TABS,ioos:station:wmo:42048:1,2017-05-24T16:30:00Z,27.9396,-96.8429,2.0,30.6265,11111222 
TABS,ioos:station:wmo:42048:1,2017-05-24T17:00:00Z,27.9396,-96.8429,2.0,30.6119,11111222 
TABS,ioos:station:wmo:42048:1,2017-05-24T17:30:00Z,27.9396,-96.8429,2.0,30.6007,11111222 
TABS,ioos:station:wmo:42048:1,2017-05-24T18:00:00Z,27.9396,-96.8429,2.0,30.593,11111222 
TABS,ioos:station:wmo:42048:1,2017-05-24T18:30:00Z,27.9396,-96.8429,2.0,30.5826,11111222 
TABS,ioos:station:wmo:42048:1,2017-05-24T19:00:00Z,27.9396,-96.8429,2.0,30.5708,11111222 
TABS,ioos:station:wmo:42048:1,2017-05-24T19:30:00Z,27.9396,-96.8429,2.0,30.5689,11111222 
TABS,ioos:station:wmo:42048:1,2017-05-24T20:00:00Z,27.9396,-96.8429,2.0,30.554,11111222 
TABS,ioos:station:wmo:42048:1,2017-05-24T20:30:00Z,27.9396,-96.8429,2.0,30.558,11111222 
TABS,ioos:station:wmo:42048:1,2017-05-24T21:00:00Z,27.9396,-96.8429,2.0,30.5572,11111222 
TABS,ioos:station:wmo:42048:1,2017-05-24T21:30:00Z,27.9396,-96.8429,2.0,30.5391,11111222 
TABS,ioos:station:wmo:42048:1,2017-05-24T22:00:00Z,27.9396,-96.8429,2.0,30.5617,11111222 
TABS,ioos:station:wmo:42048:1,2017-05-24T22:30:00Z,27.9396,-96.8429,2.0,30.5384,11111222 
TABS,ioos:station:wmo:42048:1,2017-05-24T23:00:00Z,27.9396,-96.8429,2.0,30.5591,11111222 
TABS,ioos:station:wmo:42048:1,2017-05-24T23:30:00Z,27.9396,-96.8429,2.0,30.5472,11111222 
TABS,ioos:station:wmo:42048:1,2017-05-25T00:00:00Z,27.9396,-96.8429,2.0,30.5522,11111222 
TABS,ioos:station:wmo:42048:1,2017-05-25T00:30:00Z,27.9396,-96.8429,2.0,30.5497,11111222 
TABS,ioos:station:wmo:42048:1,2017-05-25T01:00:00Z,27.9396,-96.8429,2.0,30.5539,11111222 
TABS,ioos:station:wmo:42048:1,2017-05-25T01:30:00Z,27.9396,-96.8429,2.0,30.5577,11111222 
TABS,ioos:station:wmo:42048:1,2017-05-25T02:00:00Z,27.9396,-96.8429,2.0,30.5669,11111222 
TABS,ioos:station:wmo:42048:1,2017-05-25T02:30:00Z,27.9396,-96.8429,2.0,30.5821,11111222 
TABS,ioos:station:wmo:42048:1,2017-05-25T03:00:00Z,27.9396,-96.8429,2.0,30.6133,11111222 
TABS,ioos:station:wmo:42048:1,2017-05-25T03:30:00Z,27.9396,-96.8429,2.0,30.6461,11111222 
TABS,ioos:station:wmo:42048:1,2017-05-25T04:00:00Z,27.9396,-96.8429,2.0,30.682,11111222 
TABS,ioos:station:wmo:42048:1,2017-05-25T04:30:00Z,27.9396,-96.8429,2.0,30.7307,11111222 
TABS,ioos:station:wmo:42048:1,2017-05-25T05:00:00Z,27.9396,-96.8429,2.0,30.7675,11111222 
TABS,ioos:station:wmo:42048:1,2017-05-25T05:30:00Z,27.9396,-96.8429,2.0,30.8052,11111222 
TABS,ioos:station:wmo:42048:1,2017-05-25T06:00:00Z,27.9396,-96.8429,2.0,30.8279,11111222 